DUBAISAT-1

Last updated on Thu Oct 30 2025 00:02:31 GMT+0000 (Coordinated Universal Time)

1 35682U 09041B 25302.34597528 .00002024 00000+0 31229-3 0 9990 2 35682 97.9754 73.6972 0011783 92.2983 267.9575 14.74413890871079
UTC large
Height (km)
Speed (km/s)
/
Latitude / Longitude
Inclination (degrees)
Orbital Period (minutes)
Azimuth
Elevation
Range (km)
Doppler Factor

Next 0 passes for location: London (51.5072 / 0.1276)

Sorry there are no passes over London.